STARLINK-31753, 59484

Orbit data source: Space-Track

STARLINK-31753, 59484 is a payload satellite owned by SpaceX/Seattle (US) in LEO that was launched on Sat, 13 Apr 2024 UTC via an FALCON 9 launch vehicle from the Air Force Eastern Test Range (AFETR). Payload-class satellites include a variety of spacecraft equipped with specific instruments for various scientific and technological missions. These include communications satellites like Starlink; space stations such as the ISS; scientific satellites like the Hubble; Earth observation satellites from companies like Planet Labs, Umbra, and HawkEye 360; GPS; miniature CubeSats for education and research; and military/defense satellites.

Loading next visibility...
Identifier
59484, 2024-071A
Orbit
LEO
Country
Flag of USUS
Related business
Manufacturer
SpaceX/Seattle
Mission
Operational Commercial Communications
Bus & Motor
STARLINK V2M, Unknown motor
Mass
730 kg wet, ~700 kg dry
Launch date (UTC)
2024-04-13 (2 years ago)
Launch vehicle
FALCON 9
Launch site
Air Force Eastern Test Range (AFETR)
Object type
Payload
Rocket body
Debris
Shape & HBR
Box + 2 Pan, 17.7 m
Radar Cross Section
33.884 m², Large (>1 m²)

Expand to show TLE details & history
Last TLE update: 2 days ago

TLE from 2 days ago
0 STARLINK-31753
1 59484U 24071A   26171.27394829  .00001219  00000-0  53800-4 0  9998
2 59484  43.0018 120.4790 0000955 271.6195  88.4548 15.27584820123893
Epoch: 2026-06-20T06:34Z
TLE epoch observation values (Epoch: 2026-06-20T06:34:29.132Z)
Latitude
0.00004°
Longitude
113.36673°
Altitude
482.793 km
Speed
7.626 km/s
True Right ascension
08h 01m 54s
True Declination
0° 00' 00"
Sunlit
Object was in daylight at epoch
Visualization orbit readout
Latitude
Unknown
Longitude
Unknown
Altitude
Unknown
Speed
Unknown
Apparent Right ascension
Unknown
Apparent Declination
Unknown
Sunlit
N/A
Visualization observer readout
Local Sidereal Time
21:25:13
Azimuth
Unknown
Elevation
Unknown
Doppler factor
Unknown
Orbital elements
Apogee altitude
485.635 km
Perigee altitude
484.324 km
Semi-major axis
6,863.117 km
Eccentricity
0.0001
Inclination
43.0018°
RAAN
120.479°
Arg. of periapsis
271.6195°
True anomaly
88.46574°
Mean anomaly
88.4548°
Eccentric anomaly
88.46027°
Mean motion
3.81734 °/min
Orbital period
94.31 mins
BSTAR
0.0000538
Loading maneuver chart data...
Computing Atmospheric mass density...
Loading historical data...
Loading historical data...
Loading historical data...
Loading historical data...
Loading historical data...
Loading historical data...
Loading historical data...

Documentation

Showing up to 5 results
|